| time (UTC) | temp F | wind direction | speed MPH | gust MPH | rain 1hr in | rain 24hr in | rain mn in | humidity % | barometer mb |
| 20260510125039 | 56 | 18 | 6.0 | 21.0 | 0.00 | 0.00 | 0.00 | 69 | 1016.0 |
| 20260510124550 | 56 | 342 | 6.0 | 21.0 | 0.00 | 0.00 | 0.00 | 69 | 1016.0 |
| 20260510124043 | 56 | 340 | 6.0 | 19.0 | 0.00 | 0.00 | 0.00 | 70 | 1016.0 |
| 20260510123543 | 55 | 27 | 7.0 | 19.0 | 0.00 | 0.00 | 0.00 | 73 | 1016.0 |
| 20260510123051 | 54 | 343 | 8.0 | 21.0 | 0.00 | 0.00 | 0.00 | 73 | 1016.1 |
| 20260510122542 | 54 | 329 | 8.0 | 21.0 | 0.00 | 0.00 | 0.00 | 73 | 1016.3 |
| 20260510122041 | 54 | 46 | 9.0 | 21.0 | 0.00 | 0.00 | 0.00 | 73 | 1016.2 |
| 20260510121547 | 54 | 105 | 6.0 | 17.0 | 0.00 | 0.00 | 0.00 | 74 | 1016.2 |
| 20260510121040 | 54 | 39 | 5.0 | 17.0 | 0.00 | 0.00 | 0.00 | 74 | 1016.2 |
| 20260510120541 | 54 | 327 | 6.0 | 15.0 | 0.00 | 0.00 | 0.00 | 73 | 1016.3 |
| 20260510120047 | 54 | 340 | 6.0 | 14.0 | 0.00 | 0.00 | 0.00 | 73 | 1016.2 |
| 20260510115540 | 54 | 53 | 7.0 | 18.0 | 0.00 | 0.00 | 0.00 | 73 | 1016.2 |
| 20260510115040 | 55 | 20 | 7.0 | 18.0 | 0.00 | 0.00 | 0.00 | 74 | 1016.3 |
| 20260510114605 | 54 | 349 | 6.0 | 18.0 | 0.00 | 0.00 | 0.00 | 74 | 1016.4 |
| 20260510114039 | 54 | 5 | 5.0 | 17.0 | 0.00 | 0.00 | 0.00 | 74 | 1016.6 |
| 20260510113541 | 54 | 360 | 8.0 | 17.0 | 0.00 | 0.00 | 0.00 | 73 | 1016.5 |
| 20260510113057 | 55 | 360 | 7.0 | 17.0 | 0.00 | 0.00 | 0.00 | 73 | 1016.4 |
| 20260510112540 | 55 | 10 | 7.0 | 17.0 | 0.00 | 0.00 | 0.00 | 72 | 1016.5 |
| 20260510112042 | 56 | 42 | 6.0 | 16.0 | 0.00 | 0.00 | 0.00 | 71 | 1016.5 |
| 20260510111548 | 56 | 15 | 8.0 | 20.0 | 0.00 | 0.00 | 0.00 | 71 | 1016.5 |
| 20260510111041 | 56 | 347 | 8.0 | 20.0 | 0.00 | 0.00 | 0.00 | 71 | 1016.5 |
| 20260510110543 | 56 | 5 | 7.0 | 20.0 | 0.00 | 0.00 | 0.00 | 71 | 1016.6 |
| 20260510110049 | 56 | 21 | 7.0 | 17.0 | 0.00 | 0.00 | 0.00 | 70 | 1016.6 |
| 20260510105543 | 57 | 347 | 8.0 | 16.0 | 0.00 | 0.00 | 0.00 | 69 | 1016.7 |
| 20260510105042 | 58 | 344 | 6.0 | 16.0 | 0.00 | 0.00 | 0.00 | 68 | 1016.7 |
| 20260510104556 | 58 | 355 | 6.0 | 15.0 | 0.00 | 0.00 | 0.00 | 69 | 1016.8 |
| 20260510104040 | 57 | 327 | 7.0 | 18.0 | 0.00 | 0.00 | 0.00 | 69 | 1016.8 |
| 20260510103540 | 56 | 351 | 9.0 | 18.0 | 0.00 | 0.00 | 0.00 | 70 | 1016.7 |
| 20260510103046 | 56 | 31 | 7.0 | 18.0 | 0.00 | 0.00 | 0.00 | 70 | 1016.7 |
| 20260510102541 | 56 | 15 | 8.0 | 18.0 | 0.00 | 0.00 | 0.00 | 70 | 1016.8 |
| 20260510102042 | 56 | 14 | 9.0 | 18.0 | 0.00 | 0.00 | 0.00 | 70 | 1016.7 |
| 20260510101548 | 56 | 5 | 8.0 | 18.0 | 0.00 | 0.00 | 0.00 | 70 | 1016.7 |
| 20260510101040 | 56 | 15 | 8.0 | 15.0 | 0.00 | 0.00 | 0.00 | 70 | 1016.7 |
| 20260510100540 | 57 | 12 | 6.0 | 15.0 | 0.00 | 0.00 | 0.00 | 70 | 1016.7 |
| 20260510095541 | 58 | 78 | 8.0 | 19.0 | 0.00 | 0.00 | 0.00 | 68 | 1016.6 |
| 20260510095040 | 58 | 338 | 9.0 | 19.0 | 0.00 | 0.00 | 0.00 | 69 | 1016.8 |
| 20260510094557 | 59 | 30 | 9.0 | 19.0 | 0.00 | 0.00 | 0.00 | 69 | 1016.7 |
| 20260510094041 | 58 | 355 | 9.0 | 18.0 | 0.00 | 0.00 | 0.00 | 70 | 1016.7 |
| 20260510093541 | 57 | 40 | 7.0 | 20.0 | 0.00 | 0.00 | 0.00 | 72 | 1016.8 |
| 20260510093051 | 56 | 13 | 10.0 | 20.0 | 0.00 | 0.00 | 0.00 | 69 | 1016.9 |
| 20260510092540 | 58 | 57 | 9.0 | 16.0 | 0.00 | 0.00 | 0.00 | 68 | 1017.0 |
| 20260510092040 | 58 | 63 | 6.0 | 19.0 | 0.00 | 0.00 | 0.00 | 71 | 1016.8 |
| 20260510091548 | 56 | 22 | 9.0 | 23.0 | 0.00 | 0.00 | 0.00 | 73 | 1016.9 |
| 20260510091039 | 54 | 360 | 9.0 | 23.0 | 0.00 | 0.00 | 0.00 | 74 | 1017.0 |
| 20260510090543 | 54 | 24 | 8.0 | 20.0 | 0.00 | 0.00 | 0.00 | 74 | 1017.2 |
| 20260510090049 | 54 | 26 | 7.0 | 20.0 | 0.00 | 0.00 | 0.00 | 75 | 1017.3 |
| 20260510085540 | 53 | 53 | 8.0 | 17.0 | 0.00 | 0.00 | 0.00 | 75 | 1017.3 |
| 20260510085040 | 53 | 330 | 6.0 | 17.0 | 0.00 | 0.00 | 0.00 | 76 | 1017.3 |
| 20260510084550 | 53 | 17 | 7.0 | 17.0 | 0.00 | 0.00 | 0.00 | 76 | 1017.4 |
| 20260510084040 | 52 | 13 | 7.0 | 18.0 | 0.00 | 0.00 | 0.00 | 77 | 1017.4 |
| 20260510083540 | 52 | 30 | 5.0 | 18.0 | 0.00 | 0.00 | 0.00 | 77 | 1017.3 |
| 20260510083050 | 52 | 49 | 7.0 | 18.0 | 0.00 | 0.00 | 0.00 | 77 | 1017.4 |
| 20260510082540 | 52 | 42 | 7.0 | 14.0 | 0.00 | 0.00 | 0.00 | 77 | 1017.5 |
| 20260510082041 | 52 | 342 | 5.0 | 14.0 | 0.00 | 0.00 | 0.00 | 78 | 1017.6 |
| 20260510081550 | 52 | 19 | 6.0 | 19.0 | 0.00 | 0.00 | 0.00 | 78 | 1017.4 |
| 20260510081041 | 52 | 40 | 5.0 | 19.0 | 0.00 | 0.00 | 0.00 | 79 | 1017.5 |
| 20260510080540 | 52 | 11 | 7.0 | 19.0 | 0.00 | 0.00 | 0.00 | 79 | 1017.5 |
| 20260510080055 | 52 | 24 | 7.0 | 19.0 | 0.00 | 0.00 | 0.00 | 79 | 1017.4 |
| 20260510075541 | 52 | 19 | 6.0 | 13.0 | 0.00 | 0.00 | 0.00 | 79 | 1017.5 |
| 20260510075040 | 51 | 32 | 6.0 | 13.0 | 0.00 | 0.00 | 0.00 | 80 | 1017.5 |
| 20260510074559 | 51 | 20 | 4.0 | 13.0 | 0.00 | 0.00 | 0.00 | 80 | 1017.2 |
| 20260510074041 | 51 | 344 | 5.0 | 15.0 | 0.00 | 0.00 | 0.00 | 80 | 1017.4 |
| 20260510073540 | 51 | 340 | 2.0 | 15.0 | 0.00 | 0.00 | 0.00 | 81 | 1017.3 |
| 20260510073050 | 51 | 51 | 6.0 | 15.0 | 0.00 | 0.00 | 0.00 | 81 | 1017.4 |
| 20260510072542 | 51 | 323 | 5.0 | 15.0 | 0.00 | 0.00 | 0.00 | 81 | 1017.1 |
| 20260510072043 | 51 | 11 | 6.0 | 17.0 | 0.00 | 0.00 | 0.00 | 82 | 1017.5 |
| 20260510071547 | 51 | 21 | 6.0 | 17.0 | 0.00 | 0.00 | 0.00 | 82 | 1017.3 |
| 20260510071042 | 51 | 5 | 7.0 | 17.0 | 0.00 | 0.00 | 0.00 | 82 | 1017.4 |
| 20260510070540 | 50 | 32 | 5.0 | 16.0 | 0.00 | 0.00 | 0.00 | 82 | 1017.2 |
| 20260510065543 | 50 | 28 | 6.0 | 18.0 | 0.00 | 0.00 | 0.00 | 83 | 1017.1 |
| 20260510065041 | 50 | 54 | 7.0 | 18.0 | 0.00 | 0.00 | 0.00 | 83 | 1017.2 |
| 20260510064559 | 50 | 23 | 8.0 | 18.0 | 0.00 | 0.00 | 0.00 | 84 | 1017.1 |
| 20260510064040 | 50 | 43 | 5.0 | 17.0 | 0.00 | 0.00 | 0.00 | 84 | 1017.2 |
| 20260510063540 | 50 | 25 | 6.0 | 16.0 | 0.00 | 0.00 | 0.00 | 84 | 1017.1 |
| 20260510063054 | 50 | 344 | 5.0 | 16.0 | 0.00 | 0.00 | 0.00 | 85 | 1017.1 |
| 20260510062542 | 49 | 329 | 6.0 | 12.0 | 0.00 | 0.00 | 0.00 | 85 | 1017.0 |
| 20260510062042 | 49 | 339 | 3.0 | 15.0 | 0.00 | 0.00 | 0.00 | 85 | 1017.0 |
| 20260510061549 | 49 | 11 | 5.0 | 15.0 | 0.00 | 0.00 | 0.00 | 85 | 1016.9 |
| 20260510061042 | 49 | 352 | 6.0 | 15.0 | 0.00 | 0.00 | 0.00 | 85 | 1017.0 |
| 20260510060540 | 49 | 355 | 5.0 | 17.0 | 0.00 | 0.00 | 0.00 | 85 | 1016.9 |
| 20260510060056 | 49 | 350 | 5.0 | 17.0 | 0.00 | 0.00 | 0.00 | 85 | 1017.0 |
| 20260510055541 | 49 | 5 | 5.0 | 15.0 | 0.00 | 0.00 | 0.00 | 86 | 1016.9 |
| 20260510055040 | 49 | 35 | 7.0 | 16.0 | 0.00 | 0.00 | 0.00 | 86 | 1016.9 |
| 20260510054556 | 49 | 24 | 6.0 | 16.0 | 0.00 | 0.00 | 0.00 | 86 | 1016.9 |
| 20260510054039 | 49 | 350 | 4.0 | 16.0 | 0.00 | 0.00 | 0.00 | 86 | 1017.0 |
| 20260510053539 | 49 | 355 | 7.0 | 16.0 | 0.00 | 0.00 | 0.00 | 86 | 1017.0 |
| 20260510053050 | 49 | 24 | 6.0 | 16.0 | 0.00 | 0.00 | 0.00 | 86 | 1016.9 |
| 20260510052544 | 49 | 5 | 5.0 | 13.0 | 0.00 | 0.00 | 0.00 | 87 | 1016.9 |
| 20260510052041 | 49 | 40 | 5.0 | 15.0 | 0.00 | 0.00 | 0.00 | 87 | 1017.0 |
| 20260510051551 | 49 | 355 | 5.0 | 15.0 | 0.00 | 0.00 | 0.00 | 87 | 1017.0 |
| 20260510051040 | 49 | 333 | 6.0 | 15.0 | 0.00 | 0.00 | 0.00 | 87 | 1017.0 |
| 20260510050542 | 49 | 322 | 4.0 | 15.0 | 0.00 | 0.00 | 0.00 | 87 | 1017.0 |
| 20260510050046 | 49 | 346 | 5.0 | 14.0 | 0.00 | 0.00 | 0.00 | 87 | 1016.8 |
| 20260510045541 | 49 | 340 | 5.0 | 15.0 | 0.00 | 0.00 | 0.00 | 87 | 1016.8 |
| 20260510045041 | 48 | 17 | 4.0 | 15.0 | 0.00 | 0.00 | 0.00 | 87 | 1016.8 |
| 20260510044600 | 48 | 19 | 4.0 | 14.0 | 0.00 | 0.00 | 0.00 | 87 | 1016.9 |
| 20260510044040 | 48 | 346 | 5.0 | 14.0 | 0.00 | 0.00 | 0.00 | 87 | 1016.8 |
| 20260510043540 | 48 | 5 | 6.0 | 13.0 | 0.00 | 0.00 | 0.00 | 87 | 1016.7 |
| 20260510043051 | 48 | 28 | 4.0 | 13.0 | 0.00 | 0.00 | 0.00 | 87 | 1016.8 |
| 20260510042541 | 48 | 319 | 6.0 | 15.0 | 0.00 | 0.00 | 0.00 | 87 | 1016.8 |
| 20260510042043 | 48 | 343 | 6.0 | 15.0 | 0.00 | 0.00 | 0.00 | 87 | 1016.8 |
| 20260510041553 | 48 | 360 | 5.0 | 15.0 | 0.00 | 0.00 | 0.00 | 87 | 1017.0 |
| 20260510041040 | 48 | 5 | 5.0 | 14.0 | 0.00 | 0.00 | 0.00 | 87 | 1017.0 |
| 20260510040542 | 48 | 36 | 5.0 | 13.0 | 0.00 | 0.00 | 0.00 | 87 | 1017.0 |
| 20260510040055 | 48 | 34 | 4.0 | 13.0 | 0.00 | 0.00 | 0.00 | 87 | 1017.0 |
| 20260510035540 | 48 | 343 | 6.0 | 13.0 | 0.00 | 0.00 | 0.00 | 87 | 1017.0 |
| 20260510035043 | 48 | 360 | 2.0 | 11.0 | 0.00 | 0.00 | 0.00 | 87 | 1017.1 |
| 20260510034551 | 48 | 71 | 4.0 | 11.0 | 0.00 | 0.00 | 0.00 | 87 | 1017.1 |
| 20260510034041 | 48 | 13 | 2.0 | 11.0 | 0.00 | 0.00 | 0.00 | 87 | 1017.1 |
| 20260510033539 | 48 | 344 | 3.0 | 11.0 | 0.00 | 0.00 | 0.00 | 87 | 1017.2 |
| 20260510033115 | 48 | 14 | 3.0 | 10.0 | 0.00 | 0.00 | 0.00 | 88 | 1017.2 |
| 20260510032543 | 48 | 17 | 3.0 | 11.0 | 0.00 | 0.00 | 0.00 | 87 | 1017.3 |
| 20260510032040 | 48 | 83 | 3.0 | 11.0 | 0.00 | 0.00 | 0.00 | 88 | 1017.3 |
| 20260510031554 | 48 | 9 | 3.0 | 11.0 | 0.00 | 0.00 | 0.00 | 87 | 1017.3 |
| 20260510031041 | 48 | 323 | 4.0 | 11.0 | 0.00 | 0.00 | 0.00 | 87 | 1017.3 |
| 20260510030537 | 48 | 303 | 3.0 | 13.0 | 0.00 | 0.00 | 0.00 | 87 | 1017.3 |
| 20260510030052 | 48 | 51 | 4.0 | 13.0 | 0.00 | 0.00 | 0.00 | 87 | 1017.3 |
| 20260510025537 | 48 | 5 | 4.0 | 10.0 | 0.00 | 0.00 | 0.00 | 87 | 1017.5 |
| 20260510025041 | 48 | 25 | 3.0 | 11.0 | 0.00 | 0.00 | 0.00 | 87 | 1017.5 |
| 20260510024552 | 48 | 324 | 4.0 | 12.0 | 0.00 | 0.00 | 0.00 | 87 | 1017.5 |
| 20260510024042 | 48 | 323 | 5.0 | 12.0 | 0.00 | 0.00 | 0.00 | 87 | 1017.5 |
| 20260510023541 | 48 | 12 | 5.0 | 10.0 | 0.00 | 0.00 | 0.00 | 87 | 1017.4 |
| 20260510023047 | 48 | 16 | 4.0 | 12.0 | 0.00 | 0.00 | 0.00 | 87 | 1017.4 |
| 20260510022543 | 48 | 10 | 3.0 | 12.0 | 0.00 | 0.00 | 0.00 | 87 | 1017.4 |
| 20260510022041 | 48 | 337 | 6.0 | 12.0 | 0.00 | 0.00 | 0.00 | 87 | 1017.4 |
| 20260510021550 | 48 | 22 | 3.0 | 13.0 | 0.00 | 0.00 | 0.00 | 86 | 1017.3 |
| 20260510021043 | 48 | 336 | 5.0 | 13.0 | 0.00 | 0.00 | 0.00 | 86 | 1017.4 |
| 20260510020541 | 48 | 24 | 4.0 | 13.0 | 0.00 | 0.00 | 0.00 | 86 | 1017.4 |
| 20260510020051 | 48 | 346 | 6.0 | 12.0 | 0.00 | 0.00 | 0.00 | 86 | 1017.4 |
| 20260510015540 | 49 | 38 | 4.0 | 11.0 | 0.00 | 0.00 | 0.00 | 86 | 1017.5 |
| 20260510015046 | 49 | 11 | 4.0 | 12.0 | 0.00 | 0.00 | 0.00 | 85 | 1017.5 |
| 20260510014602 | 49 | 296 | 4.0 | 12.0 | 0.00 | 0.00 | 0.00 | 85 | 1017.7 |
| 20260510014041 | 49 | 348 | 5.0 | 12.0 | 0.00 | 0.00 | 0.00 | 85 | 1017.7 |
| 20260510013542 | 49 | 344 | 3.0 | 11.0 | 0.00 | 0.00 | 0.00 | 84 | 1017.7 |
| 20260510013051 | 49 | 16 | 2.0 | 11.0 | 0.00 | 0.00 | 0.00 | 84 | 1017.7 |
| 20260510012540 | 49 | 11 | 4.0 | 9.0 | 0.00 | 0.00 | 0.00 | 84 | 1017.7 |
| 20260510012043 | 49 | 360 | 2.0 | 9.0 | 0.00 | 0.00 | 0.00 | 84 | 1017.7 |
| 20260510011557 | 49 | 302 | 3.0 | 11.0 | 0.00 | 0.00 | 0.00 | 83 | 1017.6 |
| 20260510011044 | 49 | 17 | 3.0 | 11.0 | 0.00 | 0.00 | 0.00 | 83 | 1017.5 |
| 20260510010540 | 49 | 344 | 2.0 | 11.0 | 0.00 | 0.00 | 0.00 | 82 | 1017.5 |
| 20260510010058 | 50 | 57 | 2.0 | 9.0 | 0.00 | 0.00 | 0.00 | 82 | 1017.6 |
| 20260510005541 | 50 | 5 | 2.0 | 11.0 | 0.00 | 0.00 | 0.00 | 81 | 1017.6 |
| 20260510005043 | 50 | 355 | 2.0 | 11.0 | 0.00 | 0.00 | 0.00 | 80 | 1017.6 |
| 20260510004555 | 50 | 355 | 4.0 | 10.0 | 0.00 | 0.00 | 0.00 | 79 | 1017.6 |
| 20260510004041 | 50 | 333 | 3.0 | 10.0 | 0.00 | 0.00 | 0.00 | 78 | 1017.6 |
| 20260510003541 | 51 | 346 | 2.0 | 9.0 | 0.00 | 0.00 | 0.00 | 76 | 1017.6 |
| 20260510003054 | 51 | 338 | 3.0 | 9.0 | 0.00 | 0.00 | 0.00 | 75 | 1017.6 |
| 20260510002540 | 51 | 34 | 3.0 | 8.0 | 0.00 | 0.00 | 0.00 | 73 | 1017.7 |
| 20260510002040 | 51 | 17 | 4.0 | 9.0 | 0.00 | 0.00 | 0.00 | 72 | 1017.6 |
| 20260510001550 | 51 | 346 | 4.0 | 10.0 | 0.00 | 0.00 | 0.00 | 70 | 1017.7 |
| 20260510001040 | 51 | 9 | 3.0 | 14.0 | 0.00 | 0.00 | 0.00 | 70 | 1017.7 |
| 20260510000541 | 51 | 331 | 4.0 | 14.0 | 0.00 | 0.00 | 0.00 | 69 | 1017.7 |
| 20260510000057 | 52 | 19 | 6.0 | 13.0 | 0.00 | 0.00 | 0.00 | 67 | 1017.6 |
| 20260509235543 | 52 | 351 | 2.0 | 9.0 | 0.00 | 0.00 | 0.00 | 66 | 1017.6 |
| 20260509235040 | 52 | 20 | 4.0 | 13.0 | 0.00 | 0.00 | 0.00 | 66 | 1017.5 |
| 20260509234603 | 53 | 321 | 4.0 | 13.0 | 0.00 | 0.00 | 0.00 | 66 | 1017.6 |
| 20260509234040 | 53 | 360 | 7.0 | 13.0 | 0.00 | 0.00 | 0.00 | 65 | 1017.5 |
| 20260509233542 | 53 | 344 | 5.0 | 12.0 | 0.00 | 0.00 | 0.00 | 65 | 1017.5 |
| 20260509233048 | 53 | 28 | 4.0 | 12.0 | 0.00 | 0.00 | 0.00 | 66 | 1017.5 |
| 20260509232540 | 53 | 347 | 5.0 | 12.0 | 0.00 | 0.00 | 0.00 | 66 | 1017.6 |
| 20260509232040 | 54 | 344 | 3.0 | 9.0 | 0.00 | 0.00 | 0.00 | 65 | 1017.4 |
| 20260509231550 | 54 | 5 | 4.0 | 9.0 | 0.00 | 0.00 | 0.00 | 64 | 1017.5 |
| 20260509231039 | 54 | 20 | 4.0 | 11.0 | 0.00 | 0.00 | 0.00 | 64 | 1017.5 |
| 20260509230540 | 54 | 17 | 3.0 | 11.0 | 0.00 | 0.00 | 0.00 | 64 | 1017.6 |
| 20260509230054 | 54 | 5 | 5.0 | 11.0 | 0.00 | 0.00 | 0.00 | 64 | 1017.6 |
| 20260509225544 | 54 | 342 | 4.0 | 11.0 | 0.00 | 0.00 | 0.00 | 63 | 1017.5 |
| 20260509225039 | 54 | 20 | 4.0 | 10.0 | 0.00 | 0.00 | 0.00 | 63 | 1017.5 |
| 20260509224552 | 54 | 13 | 3.0 | 8.0 | 0.00 | 0.00 | 0.00 | 62 | 1017.5 |
| 20260509224039 | 54 | 14 | 3.0 | 8.0 | 0.00 | 0.00 | 0.00 | 61 | 1017.5 |
| 20260509223544 | 54 | 355 | 3.0 | 8.0 | 0.00 | 0.00 | 0.00 | 61 | 1017.4 |
| 20260509223055 | 54 | 16 | 3.0 | 8.0 | 0.00 | 0.00 | 0.00 | 61 | 1017.3 |
| 20260509222540 | 55 | 18 | 2.0 | 6.0 | 0.00 | 0.00 | 0.00 | 60 | 1017.2 |
| 20260509222040 | 55 | 10 | 2.0 | 6.0 | 0.00 | 0.00 | 0.00 | 60 | 1017.2 |
| 20260509221550 | 55 | 355 | 2.0 | 5.0 | 0.00 | 0.00 | 0.00 | 59 | 1017.2 |
| 20260509221039 | 55 | 338 | 2.0 | 8.0 | 0.00 | 0.00 | 0.00 | 59 | 1017.3 |
| 20260509220540 | 55 | 18 | 2.0 | 8.0 | 0.00 | 0.00 | 0.00 | 59 | 1017.3 |
| 20260509220059 | 56 | 18 | 3.0 | 7.0 | 0.00 | 0.00 | 0.00 | 59 | 1017.4 |
| 20260509215540 | 56 | 28 | 2.0 | 5.0 | 0.00 | 0.00 | 0.00 | 58 | 1017.4 |
| 20260509215043 | 56 | 0 | 1.0 | 5.0 | 0.00 | 0.00 | 0.00 | 57 | 1017.3 |
| 20260509214551 | 56 | 51 | 1.0 | 5.0 | 0.00 | 0.00 | 0.00 | 56 | 1017.4 |
| 20260509214040 | 57 | 24 | 2.0 | 6.0 | 0.00 | 0.00 | 0.00 | 56 | 1017.3 |
| 20260509213541 | 57 | 45 | 2.0 | 6.0 | 0.00 | 0.00 | 0.00 | 55 | 1017.2 |
| 20260509213043 | 57 | 14 | 2.0 | 5.0 | 0.00 | 0.00 | 0.00 | 55 | 1017.2 |
| 20260509212539 | 57 | 36 | 2.0 | 6.0 | 0.00 | 0.00 | 0.00 | 55 | 1017.2 |
| 20260509212040 | 57 | 39 | 3.0 | 12.0 | 0.00 | 0.00 | 0.00 | 54 | 1017.1 |
| 20260509211550 | 58 | 32 | 4.0 | 12.0 | 0.00 | 0.00 | 0.00 | 53 | 1017.1 |
| 20260509211040 | 58 | 360 | 4.0 | 12.0 | 0.00 | 0.00 | 0.00 | 53 | 1017.0 |
| 20260509210540 | 58 | 30 | 2.0 | 7.0 | 0.00 | 0.00 | 0.00 | 53 | 1017.0 |
| 20260509210047 | 58 | 34 | 2.0 | 7.0 | 0.00 | 0.00 | 0.00 | 52 | 1017.0 |
| 20260509205540 | 58 | 22 | 2.0 | 9.0 | 0.00 | 0.00 | 0.00 | 51 | 1016.9 |
| 20260509205040 | 59 | 45 | 3.0 | 10.0 | 0.00 | 0.00 | 0.00 | 51 | 1017.0 |
| 20260509204559 | 59 | 50 | 4.0 | 10.0 | 0.00 | 0.00 | 0.00 | 50 | 1016.9 |
| 20260509204040 | 59 | 42 | 3.0 | 13.0 | 0.00 | 0.00 | 0.00 | 50 | 1016.8 |
| 20260509203540 | 59 | 11 | 4.0 | 13.0 | 0.00 | 0.00 | 0.00 | 50 | 1016.9 |
| 20260509203050 | 59 | 93 | 6.0 | 13.0 | 0.00 | 0.00 | 0.00 | 49 | 1016.8 |
| 20260509202545 | 59 | 17 | 4.0 | 10.0 | 0.00 | 0.00 | 0.00 | 50 | 1016.7 |
| 20260509202044 | 59 | 17 | 4.0 | 10.0 | 0.00 | 0.00 | 0.00 | 49 | 1016.6 |
| 20260509201550 | 60 | 22 | 3.0 | 10.0 | 0.00 | 0.00 | 0.00 | 49 | 1016.6 |
| 20260509201042 | 60 | 14 | 4.0 | 10.0 | 0.00 | 0.00 | 0.00 | 48 | 1016.5 |
| 20260509200542 | 60 | 28 | 4.0 | 11.0 | 0.00 | 0.00 | 0.00 | 49 | 1016.3 |
| 20260509200053 | 60 | 355 | 5.0 | 11.0 | 0.00 | 0.00 | 0.00 | 48 | 1016.3 |
| 20260509195540 | 60 | 32 | 5.0 | 11.0 | 0.00 | 0.00 | 0.00 | 49 | 1016.3 |
| 20260509195042 | 60 | 52 | 4.0 | 10.0 | 0.00 | 0.00 | 0.00 | 49 | 1016.2 |
| 20260509194549 | 61 | 17 | 3.0 | 12.0 | 0.00 | 0.00 | 0.00 | 49 | 1016.3 |
| 20260509194040 | 61 | 23 | 4.0 | 12.0 | 0.00 | 0.00 | 0.00 | 49 | 1016.1 |
| 20260509193540 | 61 | 72 | 4.0 | 11.0 | 0.00 | 0.00 | 0.00 | 49 | 1016.1 |
| 20260509193052 | 61 | 56 | 4.0 | 11.0 | 0.00 | 0.00 | 0.00 | 49 | 1016.1 |
| 20260509192543 | 61 | 70 | 3.0 | 10.0 | 0.00 | 0.00 | 0.00 | 50 | 1016.1 |
| 20260509192040 | 62 | 72 | 3.0 | 9.0 | 0.00 | 0.00 | 0.00 | 50 | 1016.0 |
| 20260509191555 | 62 | 99 | 3.0 | 9.0 | 0.00 | 0.00 | 0.00 | 49 | 1015.9 |
| 20260509191042 | 62 | 53 | 4.0 | 13.0 | 0.00 | 0.00 | 0.00 | 49 | 1015.9 |
| 20260509190540 | 62 | 78 | 5.0 | 13.0 | 0.00 | 0.00 | 0.00 | 48 | 1015.8 |
| 20260509190057 | 63 | 73 | 4.0 | 13.0 | 0.00 | 0.00 | 0.00 | 49 | 1015.9 |
| 20260509185543 | 63 | 76 | 4.0 | 11.0 | 0.00 | 0.00 | 0.00 | 50 | 1015.9 |
| 20260509185041 | 63 | 53 | 4.0 | 12.0 | 0.00 | 0.00 | 0.00 | 50 | 1015.8 |
| 20260509184546 | 63 | 63 | 3.0 | 12.0 | 0.00 | 0.00 | 0.00 | 51 | 1015.8 |
| 20260509184039 | 64 | 115 | 4.0 | 8.0 | 0.00 | 0.00 | 0.00 | 51 | 1015.8 |
| 20260509183540 | 64 | 82 | 3.0 | 9.0 | 0.00 | 0.00 | 0.00 | 51 | 1015.7 |
| 20260509183054 | 64 | 69 | 2.0 | 9.0 | 0.00 | 0.00 | 0.00 | 51 | 1015.7 |
| 20260509182541 | 65 | 63 | 4.0 | 12.0 | 0.00 | 0.00 | 0.00 | 51 | 1015.7 |
| 20260509182040 | 65 | 80 | 5.0 | 12.0 | 0.00 | 0.00 | 0.00 | 50 | 1015.6 |
| 20260509181602 | 65 | 86 | 4.0 | 11.0 | 0.00 | 0.00 | 0.00 | 49 | 1015.6 |
| 20260509181040 | 66 | 50 | 2.0 | 10.0 | 0.00 | 0.00 | 0.00 | 50 | 1015.6 |
| 20260509180543 | 66 | 53 | 3.0 | 10.0 | 0.00 | 0.00 | 0.00 | 49 | 1015.5 |
| 20260509180053 | 66 | 59 | 4.0 | 13.0 | 0.00 | 0.00 | 0.00 | 50 | 1015.7 |
| 20260509175540 | 66 | 64 | 4.0 | 13.0 | 0.00 | 0.00 | 0.00 | 49 | 1015.6 |
| 20260509175044 | 66 | 51 | 4.0 | 13.0 | 0.00 | 0.00 | 0.00 | 49 | 1015.5 |
| 20260509174557 | 66 | 82 | 3.0 | 11.0 | 0.00 | 0.00 | 0.00 | 49 | 1015.4 |
| 20260509174043 | 66 | 70 | 4.0 | 12.0 | 0.00 | 0.00 | 0.00 | 48 | 1015.4 |
| 20260509173542 | 67 | 94 | 5.0 | 12.0 | 0.00 | 0.00 | 0.00 | 48 | 1015.3 |
| 20260509173057 | 67 | 75 | 4.0 | 10.0 | 0.00 | 0.00 | 0.00 | 48 | 1015.3 |
| 20260509172540 | 68 | 55 | 3.0 | 10.0 | 0.00 | 0.00 | 0.00 | 47 | 1015.2 |
| 20260509172041 | 68 | 46 | 2.0 | 10.0 | 0.00 | 0.00 | 0.00 | 48 | 1015.2 |
| 20260509171552 | 68 | 67 | 4.0 | 10.0 | 0.00 | 0.00 | 0.00 | 47 | 1015.3 |
| 20260509171043 | 68 | 74 | 4.0 | 10.0 | 0.00 | 0.00 | 0.00 | 47 | 1015.3 |
| 20260509170540 | 68 | 80 | 4.0 | 10.0 | 0.00 | 0.00 | 0.00 | 47 | 1015.3 |
| 20260509170046 | 68 | 53 | 5.0 | 10.0 | 0.00 | 0.00 | 0.00 | 46 | 1015.4 |
| 20260509165540 | 68 | 75 | 4.0 | 11.0 | 0.00 | 0.00 | 0.00 | 47 | 1015.4 |
| 20260509165043 | 68 | 77 | 5.0 | 11.0 | 0.00 | 0.00 | 0.00 | 47 | 1015.3 |
| 20260509164550 | 68 | 90 | 4.0 | 13.0 | 0.00 | 0.00 | 0.00 | 47 | 1015.3 |
| 20260509164043 | 69 | 94 | 5.0 | 13.0 | 0.00 | 0.00 | 0.00 | 48 | 1015.3 |
| 20260509163543 | 69 | 60 | 5.0 | 11.0 | 0.00 | 0.00 | 0.00 | 47 | 1015.2 |
| 20260509163103 | 69 | 92 | 3.0 | 10.0 | 0.00 | 0.00 | 0.00 | 47 | 1015.2 |
| 20260509162543 | 69 | 88 | 4.0 | 11.0 | 0.00 | 0.00 | 0.00 | 48 | 1015.2 |
| 20260509162040 | 68 | 102 | 4.0 | 11.0 | 0.00 | 0.00 | 0.00 | 47 | 1015.2 |
| 20260509161552 | 69 | 76 | 4.0 | 11.0 | 0.00 | 0.00 | 0.00 | 48 | 1015.2 |
| 20260509161041 | 68 | 78 | 3.0 | 11.0 | 0.00 | 0.00 | 0.00 | 49 | 1015.4 |
| 20260509160540 | 68 | 71 | 3.0 | 12.0 | 0.00 | 0.00 | 0.00 | 48 | 1015.5 |
| 20260509160057 | 68 | 36 | 4.0 | 12.0 | 0.00 | 0.00 | 0.00 | 48 | 1015.5 |
| 20260509155540 | 69 | 49 | 3.0 | 17.0 | 0.00 | 0.00 | 0.00 | 48 | 1015.5 |
| 20260509155040 | 69 | 91 | 4.0 | 17.0 | 0.00 | 0.00 | 0.00 | 46 | 1015.6 |
| 20260509154600 | 69 | 27 | 3.0 | 10.0 | 0.00 | 0.00 | 0.00 | 49 | 1015.6 |
| 20260509154039 | 69 | 82 | 2.0 | 11.0 | 0.00 | 0.00 | 0.00 | 47 | 1015.6 |
| 20260509153539 | 69 | 82 | 3.0 | 11.0 | 0.00 | 0.00 | 0.00 | 46 | 1015.7 |
| 20260509153054 | 69 | 65 | 2.0 | 8.0 | 0.00 | 0.00 | 0.00 | 50 | 1015.7 |
| 20260509152540 | 68 | 63 | 2.0 | 7.0 | 0.00 | 0.00 | 0.00 | 47 | 1015.8 |
| 20260509152041 | 69 | 86 | 2.0 | 7.0 | 0.00 | 0.00 | 0.00 | 46 | 1015.8 |
| 20260509151553 | 69 | 35 | 3.0 | 10.0 | 0.00 | 0.00 | 0.00 | 45 | 1015.7 |
| 20260509151040 | 69 | 44 | 4.0 | 10.0 | 0.00 | 0.00 | 0.00 | 44 | 1015.7 |
| 20260509150539 | 69 | 65 | 4.0 | 10.0 | 0.00 | 0.00 | 0.00 | 43 | 1015.6 |
| 20260509150050 | 69 | 83 | 2.0 | 7.0 | 0.00 | 0.00 | 0.00 | 44 | 1015.6 |
| 20260509145542 | 69 | 0 | 2.0 | 12.0 | 0.00 | 0.00 | 0.00 | 44 | 1015.6 |
| 20260509145040 | 70 | 42 | 4.0 | 12.0 | 0.00 | 0.00 | 0.00 | 43 | 1015.6 |
| 20260509144605 | 70 | 61 | 4.0 | 12.0 | 0.00 | 0.00 | 0.00 | 43 | 1015.6 |
| 20260509144040 | 70 | 5 | 4.0 | 11.0 | 0.00 | 0.00 | 0.00 | 43 | 1015.6 |
| 20260509143540 | 70 | 334 | 3.0 | 7.0 | 0.00 | 0.00 | 0.00 | 47 | 1015.5 |
| 20260509143056 | 70 | 54 | 3.0 | 13.0 | 0.00 | 0.00 | 0.00 | 45 | 1015.4 |
| 20260509142540 | 71 | 355 | 4.0 | 13.0 | 0.00 | 0.00 | 0.00 | 43 | 1015.4 |
| 20260509142040 | 72 | 26 | 3.0 | 12.0 | 0.00 | 0.00 | 0.00 | 45 | 1015.2 |
| 20260509141555 | 72 | 78 | 3.0 | 12.0 | 0.00 | 0.00 | 0.00 | 43 | 1015.2 |
| 20260509141040 | 71 | 74 | 3.0 | 12.0 | 0.00 | 0.00 | 0.00 | 42 | 1015.3 |
| 20260509140539 | 70 | 78 | 5.0 | 10.0 | 0.00 | 0.00 | 0.00 | 41 | 1015.4 |
| 20260509140100 | 70 | 61 | 3.0 | 10.0 | 0.00 | 0.00 | 0.00 | 45 | 1015.5 |
| 20260509135541 | 71 | 34 | 3.0 | 11.0 | 0.00 | 0.00 | 0.00 | 44 | 1015.6 |
| 20260509135042 | 71 | 0 | 4.0 | 11.0 | 0.00 | 0.00 | 0.00 | 45 | 1015.6 |
| 20260509134555 | 71 | 35 | 5.0 | 10.0 | 0.00 | 0.00 | 0.00 | 45 | 1015.7 |
| 20260509134044 | 71 | 59 | 1.0 | 11.0 | 0.00 | 0.00 | 0.00 | 42 | 1015.6 |
| 20260509133540 | 71 | 75 | 2.0 | 13.0 | 0.00 | 0.00 | 0.00 | 46 | 1015.6 |
| 20260509133058 | 70 | 70 | 6.0 | 13.0 | 0.00 | 0.00 | 0.00 | 45 | 1015.7 |
| 20260509132541 | 71 | 26 | 3.0 | 12.0 | 0.00 | 0.00 | 0.00 | 47 | 1015.7 |
| 20260509132040 | 70 | 28 | 3.0 | 12.0 | 0.00 | 0.00 | 0.00 | 49 | 1015.6 |
| 20260509131557 | 70 | 22 | 5.0 | 12.0 | 0.00 | 0.00 | 0.00 | 46 | 1015.8 |
| 20260509131042 | 69 | 36 | 5.0 | 12.0 | 0.00 | 0.00 | 0.00 | 48 | 1015.8 |
| 20260509130540 | 69 | 29 | 3.0 | 12.0 | 0.00 | 0.00 | 0.00 | 48 | 1015.8 |
| 20260509130106 | 70 | 49 | 4.0 | 12.0 | 0.00 | 0.00 | 0.00 | 46 | 1015.8 |
| 20260509125541 | 70 | 30 | 5.0 | 12.0 | 0.00 | 0.00 | 0.00 | 47 | 1015.9 |